Project,Study,Ord_Occ,Event_Num,Cast_ID,Date_Time_UTC,Date_Time_PST,Lat_Dec,Lon_Dec,Sta_ID,Line,Sta,Depth,Pressure,PrQ,Temp1,Temp1Q,Temp2,Temp2Q,TempAve,Salt1,Salt1Q,Salt1_Corr,Salt2,Salt2Q,Salt2_Corr,SaltAve_Corr,Ox1,Ox1Q,Ox1_CruiseCorr,Ox1_StaCorr,Ox2,Ox2Q,Ox2_CruiseCorr,Ox2_StaCorr,OxAve_StaCorr,Ox1uM,Ox1uM_CruiseCorr,Ox1uM_StaCorr,Ox2uM,Ox2uM_CruiseCorr,Ox2uM_StaCorr,OxAveuM_StaCorr,FluorV,FluorQ,EstChl_CruiseCorr,EstChl_StaCorr,ISUSV,ISUSQ,EstNO3_CruiseCorr,EstNO3_StaCorr,SigThetaTS1,SigThetaTS1Q,SigThetaTS2,SigThetaTS2Q,BAT,XMiss,TransQ,pH,pHQ,SPAR,SPARQ,PAR,PARQ,PoT1,PoT2,DynHt,SVA,OxSat1,OxSat2,BTL_Depth,BTL_Temp,SaltB,OxB,OxBuM,Chl-a,Phaeo,NO3,NO2,NH4,PO4,SIL
CalCOFI,2007SR,064,66,2007_064u,25-Jul-2020 22:55:19,25-Jul-2020 14:55:19,34.38872,-122.24622,076.7 070.0,076.7,070.0,517.000,521.388,,5.5442,,5.5444,,5.5443,34.2476,,34.2478,34.2493,,34.2509,34.2494,0.3369,,0.3343,0.3447,2.1366,,1.1595,0.8915,0.6181,14.649,14.8040,15.1848,92.912,,38.9225,27.0537,0.0320,,,,-99.0,,-99.0,-99.0,27.0198,,27.0211,,0.6385,85.2454,,7.516,,1.6321E+03,,1.0495E-01,,5.5006,5.5007,0.8576,,4.800,30.446,,,,,,,,,,,,
CalCOFI,2007SR,064,66,2007_064u,25-Jul-2020 22:55:22,25-Jul-2020 14:55:22,34.38872,-122.24622,076.7 070.0,076.7,070.0,516.000,520.379,,5.5442,,5.5443,,5.5443,34.2474,,34.2476,34.2489,,34.2505,34.2491,0.3375,,0.3350,0.3454,2.1395,,1.1664,0.8989,0.6222,14.678,14.8343,15.2150,93.037,,39.2472,27.2311,0.0322,,,,-99.0,,-99.0,-99.0,27.0196,,27.0208,,0.6387,85.2425,,7.517,,1.6361E+03,,9.7978E-02,,5.5007,5.5008,0.8576,,4.810,30.487,516,5.544,34.2491,0.339,14.80,,,41.52,0.00,0.18,3.18,84.25
CalCOFI,2007SR,064,66,2007_064u,25-Jul-2020 22:55:36,25-Jul-2020 14:55:36,34.38872,-122.24622,076.7 070.0,076.7,070.0,515.000,519.369,,5.5444,,5.5441,,5.5443,34.2474,,34.2476,34.2489,,34.2505,34.2491,0.3381,,0.3356,0.3460,2.1211,,1.1225,0.8524,0.5992,14.702,14.8593,15.2401,92.238,,37.1721,26.2061,0.0322,,,,-99.0,,-99.0,-99.0,27.0196,,27.0208,,0.6401,85.2126,,7.516,,1.6394E+03,,9.6972E-02,,5.5009,5.5007,0.8592,,4.818,30.225,,,,,,,,,,,,
CalCOFI,2007SR,064,66,2007_064u,25-Jul-2020 22:55:43,25-Jul-2020 14:55:43,34.38872,-122.24622,076.7 070.0,076.7,070.0,514.000,518.359,,5.5458,,5.5462,,5.5460,34.2473,,34.2475,34.2490,,34.2506,34.2491,0.3450,,0.3428,0.3532,2.1162,,1.1108,0.8401,0.5967,15.002,15.1725,15.5532,92.024,,36.6163,26.0848,0.0324,,,,-99.0,,-99.0,-99.0,27.0193,,27.0206,,0.6387,85.2428,,7.517,,1.6083E+03,,9.4457E-02,,5.5025,5.5028,0.8600,,4.916,30.156,,,,,,,,,,,,
CalCOFI,2007SR,064,66,2007_064u,25-Jul-2020 22:55:44,25-Jul-2020 14:55:44,34.38872,-122.24622,076.7 070.0,076.7,070.0,513.000,517.350,,5.5663,,5.5659,,5.5661,34.2455,,34.2457,34.2471,,34.2487,34.2472,0.3414,,0.3390,0.3494,2.1174,,1.1137,0.8431,0.5963,14.845,15.0086,15.3893,92.077,,36.7540,26.0717,0.0325,,,,-99.0,,-99.0,-99.0,27.0154,,27.0168,,0.6400,85.2137,,7.517,,1.6175E+03,,9.4728E-02,,5.5230,5.5226,0.8599,,4.867,30.187,,,,,,,,,,,,
CalCOFI,2007SR,064,66,2007_064u,25-Jul-2020 22:55:45,25-Jul-2020 14:55:45,34.38872,-122.24622,076.7 070.0,076.7,070.0,512.000,516.340,,5.5703,,5.5703,,5.5703,34.2449,,34.2451,34.2463,,34.2479,34.2465,0.3456,,0.3434,0.3538,2.1178,,1.1146,0.8441,0.5990,15.029,15.2007,15.5814,92.095,,36.8007,26.1911,0.0316,,,,-99.0,,-99.0,-99.0,27.0145,,27.0156,,0.6386,85.2442,,7.519,,1.6354E+03,,9.7407E-02,,5.5270,5.5271,0.8599,,4.928,30.196,,,,,,,,,,,,
CalCOFI,2007SR,064,66,2007_064u,25-Jul-2020 22:55:46,25-Jul-2020 14:55:46,34.38872,-122.24622,076.7 070.0,076.7,070.0,511.000,515.330,,5.5720,,5.5721,,5.5721,34.2447,,34.2449,34.2462,,34.2478,34.2464,0.3476,,0.3455,0.3559,2.1138,,1.1051,0.8340,0.5950,15.116,15.2915,15.6722,91.918,,36.3410,26.0066,0.0322,,,,-99.0,,-99.0,-99.0,27.0141,,27.0152,,0.6386,85.2441,,7.519,,1.6430E+03,,9.2223E-02,,5.5288,5.5289,0.8599,,4.956,30.139,,,,,,,,,,,,
CalCOFI,2007SR,064,66,2007_064u,25-Jul-2020 22:55:47,25-Jul-2020 14:55:47,34.38872,-122.24622,076.7 070.0,076.7,070.0,510.000,514.321,,5.5760,,5.5762,,5.5761,34.2443,,34.2445,34.2459,,34.2475,34.2460,0.3479,,0.3458,0.3562,2.1041,,1.0819,0.8095,0.5829,15.129,15.3051,15.6857,91.497,,35.2477,25.4667,0.0324,,,,-99.0,,-99.0,-99.0,27.0133,,27.0145,,0.6386,85.2441,,7.519,,1.6434E+03,,9.3082E-02,,5.5329,5.5331,0.8599,,4.961,30.004,,,,,,,,,,,,
CalCOFI,2007SR,064,66,2007_064u,25-Jul-2020 22:55:48,25-Jul-2020 14:55:48,34.38872,-122.24622,076.7 070.0,076.7,070.0,509.000,513.311,,5.5795,,5.5797,,5.5796,34.2442,,34.2444,34.2455,,34.2471,34.2458,0.3539,,0.3521,0.3625,2.1091,,1.0939,0.8221,0.5923,15.390,15.5775,15.9581,91.713,,35.8086,25.8834,0.0317,,,,-99.0,,-99.0,-99.0,27.0127,,27.0138,,0.6386,85.2441,,7.518,,1.6394E+03,,9.0094E-02,,5.5365,5.5367,0.8599,,5.047,30.077,,,,,,,,,,,,
CalCOFI,2007SR,064,66,2007_064u,25-Jul-2020 22:55:49,25-Jul-2020 14:55:49,34.38871,-122.24622,076.7 070.0,076.7,070.0,508.000,512.301,,5.5910,,5.5910,,5.5910,34.2446,,34.2448,34.2462,,34.2478,34.2463,0.3485,,0.3464,0.3568,2.1097,,1.0953,0.8237,0.5903,15.155,15.3322,15.7129,91.740,,35.8788,25.7959,0.0318,,,,-99.0,,-99.0,-99.0,27.0117,,27.0129,,0.6386,85.2441,,7.518,,1.6371E+03,,8.8842E-02,,5.5480,5.5480,0.8599,,4.971,30.094,,,,,,,,,,,,
CalCOFI,2007SR,064,66,2007_064u,25-Jul-2020 22:55:50,25-Jul-2020 14:55:50,34.38871,-122.24622,076.7 070.0,076.7,070.0,507.000,511.291,,5.6046,,5.6046,,5.6046,34.2437,,34.2439,34.2452,,34.2468,34.2454,0.3482,,0.3461,0.3565,2.1035,,1.0805,0.8080,0.5823,15.141,15.3176,15.6983,91.470,,35.1775,25.4379,0.0321,,,,-99.0,,-99.0,-99.0,27.0093,,27.0105,,0.6386,85.2441,,7.520,,1.6505E+03,,8.4395E-02,,5.5617,5.5616,0.8599,,4.968,30.014,,,,,,,,,,,,
CalCOFI,2007SR,064,66,2007_064u,25-Jul-2020 22:55:51,25-Jul-2020 14:55:51,34.38872,-122.24622,076.7 070.0,076.7,070.0,506.000,510.282,,5.6077,,5.6077,,5.6077,34.2427,,34.2429,34.2443,,34.2459,34.2444,0.3541,,0.3523,0.3627,2.1047,,1.0834,0.8110,0.5869,15.399,15.5869,15.9675,91.521,,35.3100,25.6388,0.0330,,,,-99.0,,-99.0,-99.0,27.0082,,27.0094,,0.6389,85.2367,,7.520,,1.6812E+03,,9.1388E-02,,5.5648,5.5648,0.8599,,5.053,30.034,,,,,,,,,,,,
CalCOFI,2007SR,064,66,2007_064u,25-Jul-2020 22:55:52,25-Jul-2020 14:55:52,34.38872,-122.24622,076.7 070.0,076.7,070.0,505.000,509.272,,5.6105,,5.6105,,5.6105,34.2422,,34.2424,34.2438,,34.2454,34.2439,0.3553,,0.3536,0.3639,2.1030,,1.0793,0.8067,0.5853,15.452,15.6422,16.0228,91.449,,35.1230,25.5729,0.0320,,,,-99.0,,-99.0,-99.0,27.0074,,27.0086,,0.6394,85.2263,,7.519,,1.7186E+03,,9.1188E-02,,5.5677,5.5677,0.8599,,5.071,30.012,,,,,,,,,,,,
CalCOFI,2007SR,064,66,2007_064u,25-Jul-2020 22:55:53,25-Jul-2020 14:55:53,34.38872,-122.24622,076.7 070.0,076.7,070.0,504.000,508.262,,5.6121,,5.6124,,5.6123,34.2420,,34.2422,34.2433,,34.2449,34.2436,0.3572,,0.3555,0.3659,2.0967,,1.0643,0.7909,0.5784,15.535,15.7289,16.1095,91.176,,34.4140,25.2618,0.0320,,,,-99.0,,-99.0,-99.0,27.0070,,27.0080,,0.6386,85.2444,,7.520,,1.7062E+03,,8.5855E-02,,5.5694,5.5697,0.8599,,5.098,29.923,,,,,,,,,,,,
CalCOFI,2007SR,064,66,2007_064u,25-Jul-2020 22:55:55,25-Jul-2020 14:55:55,34.38872,-122.24622,076.7 070.0,076.7,070.0,503.000,507.253,,5.6148,,5.6147,,5.6148,34.2413,,34.2415,34.2428,,34.2444,34.2430,0.3627,,0.3613,0.3717,2.1007,,1.0738,0.8009,0.5863,15.773,15.9773,16.3579,91.352,,34.8711,25.6145,0.0323,,,,-99.0,,-99.0,-99.0,27.0062,,27.0073,,0.6386,85.2450,,7.519,,1.6507E+03,,8.9376E-02,,5.5722,5.5721,0.8599,,5.177,29.983,,,,,,,,,,,,
CalCOFI,2007SR,064,66,2007_064u,25-Jul-2020 22:55:55,25-Jul-2020 14:55:55,34.38872,-122.24622,076.7 070.0,076.7,070.0,502.000,506.243,,5.6237,,5.6240,,5.6239,34.2385,,34.2387,34.2399,,34.2415,34.2401,0.3670,,0.3658,0.3761,2.1001,,1.0724,0.7994,0.5878,15.961,16.1736,16.5541,91.326,,34.8036,25.6789,0.0320,,,,-99.0,,-99.0,-99.0,27.0029,,27.0039,,0.6386,85.2441,,7.519,,1.6299E+03,,8.7004E-02,,5.5811,5.5814,0.8599,,5.240,29.980,,,,,,,,,,,,
CalCOFI,2007SR,064,66,2007_064u,25-Jul-2020 22:55:56,25-Jul-2020 14:55:56,34.38872,-122.24622,076.7 070.0,076.7,070.0,501.000,505.233,,5.6266,,5.6267,,5.6267,34.2368,,34.2370,34.2381,,34.2397,34.2384,0.3677,,0.3665,0.3769,2.0997,,1.0714,0.7984,0.5877,15.991,16.2049,16.5854,91.309,,34.7594,25.6724,0.0320,,,,-99.0,,-99.0,-99.0,27.0011,,27.0022,,0.6386,85.2441,,7.520,,1.6234E+03,,8.8389E-02,,5.5841,5.5842,0.8599,,5.249,29.976,,,,,,,,,,,,
CalCOFI,2007SR,064,66,2007_064u,25-Jul-2020 22:55:57,25-Jul-2020 14:55:57,34.38872,-122.24622,076.7 070.0,076.7,070.0,500.000,504.224,,5.6282,,5.6284,,5.6283,34.2360,,34.2362,34.2372,,34.2388,34.2375,0.3693,,0.3682,0.3785,2.0994,,1.0707,0.7977,0.5881,16.060,16.2769,16.6574,91.293,,34.7179,25.6877,0.0322,,,,-99.0,,-99.0,-99.0,27.0003,,27.0012,,0.6388,85.2399,,7.520,,1.6199E+03,,8.8728E-02,,5.5857,5.5860,0.8599,,5.272,29.972,,,,,,,,,,,,
CalCOFI,2007SR,064,66,2007_064u,25-Jul-2020 22:55:58,25-Jul-2020 14:55:58,34.38871,-122.24622,076.7 070.0,076.7,070.0,499.000,503.214,,5.6362,,5.6367,,5.6365,34.2342,,34.2344,34.2357,,34.2373,34.2359,0.3721,,0.3711,0.3815,2.0987,,1.0690,0.7959,0.5887,16.180,16.4022,16.7826,91.262,,34.6373,25.7100,0.0327,,,,-99.0,,-99.0,-99.0,26.9979,,26.9990,,0.6386,85.2440,,7.520,,1.6132E+03,,8.7003E-02,,5.5939,5.5943,0.8599,,5.313,29.967,,,,,,,,,,,,
CalCOFI,2007SR,064,66,2007_064u,25-Jul-2020 22:55:59,25-Jul-2020 14:55:59,34.38870,-122.24622,076.7 070.0,076.7,070.0,498.000,502.204,,5.6432,,5.6455,,5.6444,34.2328,,34.2330,34.2341,,34.2357,34.2344,0.3752,,0.3743,0.3847,2.0911,,1.0509,0.7767,0.5807,16.315,16.5431,16.9235,90.935,,33.7881,25.3558,0.0314,,,,-99.0,,-99.0,-99.0,26.9959,,26.9967,,0.6386,85.2441,,7.520,,1.6025E+03,,8.2551E-02,,5.6009,5.6032,0.8599,,5.358,29.865,,,,,,,,,,,,
CalCOFI,2007SR,064,66,2007_064u,25-Jul-2020 22:56:00,25-Jul-2020 14:56:00,34.38870,-122.24621,076.7 070.0,076.7,070.0,497.000,501.194,,5.6461,,5.6474,,5.6468,34.2323,,34.2325,34.2333,,34.2349,34.2337,0.3739,,0.3730,0.3833,2.0874,,1.0421,0.7674,0.5754,16.258,16.4836,16.8640,90.773,,33.3674,25.1157,0.0317,,,,-99.0,,-99.0,-99.0,26.9952,,26.9958,,0.6386,85.2441,,7.520,,1.5960E+03,,8.4127E-02,,5.6039,5.6052,0.8599,,5.339,29.813,,,,,,,,,,,,
CalCOFI,2007SR,064,66,2007_064u,25-Jul-2020 22:56:01,25-Jul-2020 14:56:01,34.38870,-122.24621,076.7 070.0,076.7,070.0,496.000,500.185,,5.6497,,5.6499,,5.6498,34.2312,,34.2314,34.2325,,34.2341,34.2328,0.3788,,0.3781,0.3885,2.0964,,1.0635,0.7901,0.5893,16.471,16.7060,17.0863,91.166,,34.3880,25.7372,0.0321,,,,-99.0,,-99.0,-99.0,26.9938,,26.9948,,0.6386,85.2441,,7.520,,1.5981E+03,,8.7294E-02,,5.6075,5.6078,0.8599,,5.410,29.944,,,,,,,,,,,,
CalCOFI,2007SR,064,66,2007_064u,25-Jul-2020 22:56:02,25-Jul-2020 14:56:02,34.38870,-122.24622,076.7 070.0,076.7,070.0,495.000,499.175,,5.6538,,5.6545,,5.6542,34.2313,,34.2315,34.2327,,34.2343,34.2329,0.3771,,0.3763,0.3867,2.0896,,1.0473,0.7729,0.5798,16.398,16.6298,17.0102,90.871,,33.6219,25.3161,0.0324,,,,-99.0,,-99.0,-99.0,26.9934,,26.9944,,0.6386,85.2441,,7.520,,1.6068E+03,,8.1252E-02,,5.6117,5.6124,0.8599,,5.386,29.850,,,,,,,,,,,,
CalCOFI,2007SR,064,66,2007_064u,25-Jul-2020 22:56:03,25-Jul-2020 14:56:03,34.38871,-122.24622,076.7 070.0,076.7,070.0,494.000,498.166,,5.6634,,5.6638,,5.6636,34.2316,,34.2318,34.2330,,34.2346,34.2332,0.3805,,0.3799,0.3902,2.0975,,1.0662,0.7929,0.5916,16.547,16.7853,17.1657,91.212,,34.5075,25.8366,0.0320,,,,-99.0,,-99.0,-99.0,26.9925,,26.9935,,0.6386,85.2441,,7.520,,1.6174E+03,,8.2526E-02,,5.6214,5.6218,0.8599,,5.436,29.969,,,,,,,,,,,,
CalCOFI,2007SR,064,66,2007_064u,25-Jul-2020 22:56:05,25-Jul-2020 14:56:05,34.38872,-122.24622,076.7 070.0,076.7,070.0,493.000,497.156,,5.6740,,5.6760,,5.6750,34.2316,,34.2318,34.2331,,34.2347,34.2333,0.3801,,0.3795,0.3898,2.0889,,1.0456,0.7712,0.5805,16.529,16.7665,17.1469,90.838,,33.5362,25.3416,0.0322,,,,-99.0,,-99.0,-99.0,26.9912,,26.9921,,0.6400,85.2132,,7.520,,1.6164E+03,,7.9861E-02,,5.6320,5.6340,0.8599,,5.432,29.854,,,,,,,,,,,,
CalCOFI,2007SR,064,66,2007_064u,25-Jul-2020 22:56:06,25-Jul-2020 14:56:06,34.38872,-122.24622,076.7 070.0,076.7,070.0,492.000,496.146,,5.6857,,5.6862,,5.6860,34.2306,,34.2308,34.2320,,34.2336,34.2322,0.3855,,0.3851,0.3955,2.0879,,1.0432,0.7686,0.5821,16.763,17.0108,17.3911,90.796,,33.4271,25.4091,0.0324,,,,-99.0,,-99.0,-99.0,26.9890,,26.9900,,0.6386,85.2447,,7.520,,1.6048E+03,,8.1935E-02,,5.6438,5.6443,0.8599,,5.511,29.848,,,,,,,,,,,,
CalCOFI,2007SR,064,66,2007_064u,25-Jul-2020 22:56:07,25-Jul-2020 14:56:07,34.38870,-122.24622,076.7 070.0,076.7,070.0,491.000,495.137,,5.6915,,5.6915,,5.6915,34.2298,,34.2300,34.2311,,34.2327,34.2314,0.3838,,0.3833,0.3937,2.0869,,1.0409,0.7661,0.5799,16.691,16.9356,17.3160,90.750,,33.3076,25.3118,0.0330,,,,-99.0,,-99.0,-99.0,26.9876,,26.9886,,0.6386,85.2441,,7.520,,1.5978E+03,,8.8650E-02,,5.6496,5.6496,0.8599,,5.487,29.836,,,,,,,,,,,,
CalCOFI,2007SR,064,66,2007_064u,25-Jul-2020 22:56:07,25-Jul-2020 14:56:07,34.38870,-122.24622,076.7 070.0,076.7,070.0,490.000,494.127,,5.6928,,5.6931,,5.6930,34.2293,,34.2295,34.2306,,34.2322,34.2309,0.3883,,0.3880,0.3984,2.0925,,1.0542,0.7803,0.5894,16.887,17.1402,17.5205,90.995,,33.9439,25.7322,0.0325,,,,-99.0,,-99.0,-99.0,26.9871,,26.9881,,0.6386,85.2441,,7.520,,1.5897E+03,,7.8779E-02,,5.6510,5.6513,0.8599,,5.552,29.917,,,,,,,,,,,,
CalCOFI,2007SR,064,66,2007_064u,25-Jul-2020 22:56:08,25-Jul-2020 14:56:08,34.38870,-122.24622,076.7 070.0,076.7,070.0,489.000,493.117,,5.6962,,5.6970,,5.6966,34.2290,,34.2292,34.2303,,34.2319,34.2306,0.3910,,0.3909,0.4012,2.0818,,1.0287,0.7533,0.5773,17.004,17.2624,17.6426,90.528,,32.7311,25.1869,0.0322,,,,-99.0,,-99.0,-99.0,26.9864,,26.9873,,0.6386,85.2441,,7.520,,1.5940E+03,,7.9372E-02,,5.6545,5.6553,0.8599,,5.591,29.767,,,,,,,,,,,,
CalCOFI,2007SR,064,66,2007_064u,25-Jul-2020 22:56:09,25-Jul-2020 14:56:09,34.38870,-122.24622,076.7 070.0,076.7,070.0,488.000,492.108,,5.7047,,5.7057,,5.7052,34.2276,,34.2278,34.2287,,34.2303,34.2291,0.3958,,0.3959,0.4062,2.0867,,1.0404,0.7656,0.5859,17.212,17.4795,17.8597,90.745,,33.2946,25.5772,0.0320,,,,-99.0,,-99.0,-99.0,26.9842,,26.9850,,0.6386,85.2441,,7.520,,1.5997E+03,,7.5349E-02,,5.6631,5.6640,0.8599,,5.661,29.844,,,,,,,,,,,,
CalCOFI,2007SR,064,66,2007_064u,25-Jul-2020 22:56:10,25-Jul-2020 14:56:10,34.38870,-122.24622,076.7 070.0,076.7,070.0,487.000,491.098,,5.7078,,5.7079,,5.7079,34.2258,,34.2260,34.2272,,34.2288,34.2274,0.3967,,0.3968,0.4071,2.0817,,1.0284,0.7530,0.5801,17.249,17.5181,17.8983,90.526,,32.7259,25.3121,0.0323,,,,-99.0,,-99.0,-99.0,26.9824,,26.9835,,0.6386,85.2441,,7.520,,1.5935E+03,,7.1921E-02,,5.6662,5.6663,0.8599,,5.673,29.773,,,,,,,,,,,,
CalCOFI,2007SR,064,66,2007_064u,25-Jul-2020 22:56:11,25-Jul-2020 14:56:11,34.38870,-122.24622,076.7 070.0,076.7,070.0,486.000,490.089,,5.7114,,5.7118,,5.7116,34.2250,,34.2252,34.2263,,34.2279,34.2266,0.4016,,0.4019,0.4123,2.0794,,1.0230,0.7472,0.5798,17.463,17.7415,18.1217,90.425,,32.4636,25.2927,0.0322,,,,-99.0,,-99.0,-99.0,26.9813,,26.9823,,0.6386,85.2441,,7.519,,1.5914E+03,,8.0150E-02,,5.6699,5.6703,0.8599,,5.744,29.742,,,,,,,,,,,,
CalCOFI,2007SR,064,66,2007_064u,25-Jul-2020 22:56:12,25-Jul-2020 14:56:12,34.38870,-122.24622,076.7 070.0,076.7,070.0,485.000,489.079,,5.7210,,5.7219,,5.7215,34.2228,,34.2230,34.2242,,34.2258,34.2244,0.4060,,0.4065,0.4169,2.0885,,1.0447,0.7702,0.5936,17.657,17.9440,18.3242,90.821,,33.4920,25.9081,0.0323,,,,-99.0,,-99.0,-99.0,26.9784,,26.9793,,0.6386,85.2441,,7.519,,1.5853E+03,,7.8781E-02,,5.6796,5.6805,0.8599,,5.809,29.879,,,,,,,,,,,,
CalCOFI,2007SR,064,66,2007_064u,25-Jul-2020 22:56:14,25-Jul-2020 14:56:14,34.38870,-122.24621,076.7 070.0,076.7,070.0,484.000,488.069,,5.7271,,5.7273,,5.7272,34.2216,,34.2218,34.2230,,34.2246,34.2232,0.4100,,0.4107,0.4210,2.0814,,1.0277,0.7522,0.5866,17.828,18.1225,18.5026,90.514,,32.6947,25.5987,0.0317,,,,-99.0,,-99.0,-99.0,26.9767,,26.9778,,0.6386,85.2441,,7.519,,1.5807E+03,,7.7364E-02,,5.6857,5.6859,0.8599,,5.866,29.781,,,,,,,,,,,,
CalCOFI,2007SR,064,66,2007_064u,25-Jul-2020 22:56:15,25-Jul-2020 14:56:15,34.38870,-122.24622,076.7 070.0,076.7,070.0,483.000,487.060,,5.7306,,5.7311,,5.7309,34.2209,,34.2211,34.2221,,34.2237,34.2224,0.4119,,0.4127,0.4230,2.0793,,1.0227,0.7469,0.5850,17.912,18.2102,18.5903,90.423,,32.4584,25.5244,0.0327,,,,-99.0,,-99.0,-99.0,26.9757,,26.9766,,0.6393,85.2292,,7.519,,1.5789E+03,,7.4970E-02,,5.6893,5.6898,0.8599,,5.894,29.754,,,,,,,,,,,,
CalCOFI,2007SR,064,66,2007_064u,25-Jul-2020 22:56:16,25-Jul-2020 14:56:16,34.38870,-122.24622,076.7 070.0,076.7,070.0,482.000,486.050,,5.7396,,5.7401,,5.7399,34.2193,,34.2195,34.2206,,34.2222,34.2209,0.4130,,0.4138,0.4242,2.0827,,1.0308,0.7555,0.5899,17.959,18.2593,18.6393,90.569,,32.8376,25.7385,0.0314,,,,-99.0,,-99.0,-99.0,26.9733,,26.9743,,0.6386,85.2445,,7.519,,1.5792E+03,,8.0169E-02,,5.6984,5.6989,0.8599,,5.911,29.808,,,,,,,,,,,,
CalCOFI,2007SR,064,66,2007_064u,25-Jul-2020 22:56:17,25-Jul-2020 14:56:17,34.38870,-122.24622,076.7 070.0,076.7,070.0,481.000,485.041,,5.7438,,5.7446,,5.7442,34.2185,,34.2187,34.2198,,34.2214,34.2201,0.4155,,0.4165,0.4268,2.0858,,1.0382,0.7633,0.5951,18.070,18.3752,18.7552,90.705,,33.1908,25.9730,0.0327,,,,-99.0,,-99.0,-99.0,26.9721,,26.9731,,0.6386,85.2441,,7.519,,1.5837E+03,,7.8946E-02,,5.7027,5.7035,0.8599,,5.948,29.856,,,,,,,,,,,,
CalCOFI,2007SR,064,66,2007_064u,25-Jul-2020 22:56:17,25-Jul-2020 14:56:17,34.38870,-122.24622,076.7 070.0,076.7,070.0,480.000,484.031,,5.7487,,5.7493,,5.7490,34.2176,,34.2178,34.2188,,34.2204,34.2191,0.4172,,0.4182,0.4285,2.0803,,1.0251,0.7495,0.5890,18.145,18.4535,18.8335,90.468,,32.5753,25.7044,0.0325,,,,-99.0,,-99.0,-99.0,26.9708,,26.9717,,0.6386,85.2441,,7.519,,1.5826E+03,,7.4006E-02,,5.7076,5.7082,0.8599,,5.973,29.781,,,,,,,,,,,,
CalCOFI,2007SR,064,66,2007_064u,25-Jul-2020 22:56:18,25-Jul-2020 14:56:18,34.38870,-122.24622,076.7 070.0,076.7,070.0,479.000,483.021,,5.7503,,5.7506,,5.7505,34.2174,,34.2176,34.2187,,34.2203,34.2190,0.4143,,0.4152,0.4255,2.0758,,1.0144,0.7381,0.5818,18.018,18.3209,18.7009,90.269,,32.0584,25.3797,0.0321,,,,-99.0,,-99.0,-99.0,26.9704,,26.9714,,0.6386,85.2441,,7.519,,1.5818E+03,,7.3018E-02,,5.7093,5.7096,0.8599,,5.931,29.716,,,,,,,,,,,,
CalCOFI,2007SR,064,66,2007_064u,25-Jul-2020 22:56:19,25-Jul-2020 14:56:19,34.38870,-122.24622,076.7 070.0,076.7,070.0,478.000,482.012,,5.7597,,5.7597,,5.7597,34.2177,,34.2179,34.2192,,34.2208,34.2194,0.4187,,0.4198,0.4301,2.0811,,1.0270,0.7515,0.5908,18.209,18.5203,18.9003,90.501,,32.6610,25.7807,0.0325,,,,-99.0,,-99.0,-99.0,26.9696,,26.9707,,0.6386,85.2441,,7.519,,1.5834E+03,,7.4350E-02,,5.7187,5.7187,0.8599,,5.995,29.799,,,,,,,,,,,,
CalCOFI,2007SR,064,66,2007_064u,25-Jul-2020 22:56:21,25-Jul-2020 14:56:21,34.38870,-122.24622,076.7 070.0,076.7,070.0,477.000,481.002,,5.7648,,5.7652,,5.7650,34.2168,,34.2170,34.2181,,34.2197,34.2184,0.4231,,0.4244,0.4347,2.0730,,1.0077,0.7310,0.5829,18.400,18.7197,19.0996,90.147,,31.7416,25.4206,0.0325,,,,-99.0,,-99.0,-99.0,26.9682,,26.9692,,0.6386,85.2441,,7.519,,1.5791E+03,,7.4842E-02,,5.7239,5.7243,0.8599,,6.059,29.686,,,,,,,,,,,,
CalCOFI,2007SR,064,66,2007_064u,25-Jul-2020 22:56:22,25-Jul-2020 14:56:22,34.38870,-122.24622,076.7 070.0,076.7,070.0,476.000,479.993,,5.7642,,5.7658,,5.7650,34.2160,,34.2162,34.2147,,34.2163,34.2163,0.4278,,0.4293,0.4396,2.0753,,1.0132,0.7368,0.5882,18.603,18.9316,19.3115,90.247,,32.0013,25.6564,0.0328,,,,-99.0,,-99.0,-99.0,26.9676,,26.9664,,0.6386,85.2441,,7.519,,1.5647E+03,,7.3922E-02,,5.7234,5.7251,0.8599,,6.126,29.718,,,,,,,,,,,,
CalCOFI,2007SR,064,66,2007_064u,25-Jul-2020 22:56:23,25-Jul-2020 14:56:23,34.38871,-122.24620,076.7 070.0,076.7,070.0,475.000,478.983,,5.7683,,5.7665,,5.7674,34.2147,,34.2149,34.2095,,34.2111,34.2130,0.4334,,0.4352,0.4454,2.0766,,1.0163,0.7401,0.5928,18.846,19.1852,19.5651,90.306,,32.1545,25.8598,0.0318,,,,-99.0,,-99.0,-99.0,26.9661,,26.9622,,0.6386,85.2441,,7.519,,1.5574E+03,,6.9757E-02,,5.7276,5.7258,0.8599,,6.206,29.737,,,,,,,,,,,,
CalCOFI,2007SR,064,66,2007_064u,25-Jul-2020 22:56:24,25-Jul-2020 14:56:24,34.38870,-122.24621,076.7 070.0,076.7,070.0,474.000,477.974,,5.7773,,5.7744,,5.7759,34.2134,,34.2136,34.1993,,34.2009,34.2073,0.4334,,0.4352,0.4454,2.0633,,0.9845,0.7066,0.5760,18.850,19.1894,19.5693,89.730,,30.6586,25.1140,0.0319,,,,-99.0,,-99.0,-99.0,26.9639,,26.9531,,0.6386,85.2441,,7.519,,1.5558E+03,,7.1259E-02,,5.7366,5.7338,0.8599,,6.209,29.551,,,,,,,,,,,,
CalCOFI,2007SR,064,66,2007_064u,25-Jul-2020 22:56:25,25-Jul-2020 14:56:25,34.38870,-122.24622,076.7 070.0,076.7,070.0,473.000,476.964,,5.7815,,5.7806,,5.7811,34.2117,,34.2119,34.1911,,34.1927,34.2023,0.4342,,0.4360,0.4463,2.0616,,0.9805,0.7023,0.5743,18.883,19.2239,19.6037,89.654,,30.4612,25.0325,0.0325,,,,-99.0,,-99.0,-99.0,26.9621,,26.9459,,0.6386,85.2441,,7.519,,1.5558E+03,,6.7554E-02,,5.7410,5.7400,0.8599,,6.220,29.528,,,,,,,,,,,,
CalCOFI,2007SR,064,66,2007_064u,25-Jul-2020 22:56:25,25-Jul-2020 14:56:25,34.38870,-122.24622,076.7 070.0,076.7,070.0,472.000,475.955,,5.7828,,5.7816,,5.7822,34.2106,,34.2108,34.1876,,34.1892,34.2000,0.4370,,0.4389,0.4492,2.0683,,0.9965,0.7192,0.5842,19.005,19.3512,19.7310,89.947,,31.2222,25.4766,0.0322,,,,-99.0,,-99.0,-99.0,26.9610,,26.9430,,0.6387,85.2421,,7.520,,1.5532E+03,,7.2693E-02,,5.7423,5.7411,0.8599,,6.261,29.625,,,,,,,,,,,,
CalCOFI,2007SR,064,66,2007_064u,25-Jul-2020 22:56:27,25-Jul-2020 14:56:27,34.38872,-122.24622,076.7 070.0,076.7,070.0,471.000,474.945,,5.7845,,5.7836,,5.7841,34.2100,,34.2102,34.1816,,34.1832,34.1967,0.4377,,0.4397,0.4499,2.0684,,0.9967,0.7194,0.5847,19.035,19.3825,19.7623,89.954,,31.2403,25.5013,0.0328,,,,-99.0,,-99.0,-99.0,26.9603,,26.9380,,0.6393,85.2297,,7.520,,1.5509E+03,,6.8836E-02,,5.7441,5.7432,0.8599,,6.271,29.627,,,,,,,,,,,,
CalCOFI,2007SR,064,66,2007_064u,25-Jul-2020 22:56:28,25-Jul-2020 14:56:28,34.38872,-122.24621,076.7 070.0,076.7,070.0,470.000,473.936,,5.7859,,5.7849,,5.7854,34.2094,,34.2096,34.1745,,34.1761,34.1929,0.4349,,0.4367,0.4470,2.0669,,0.9931,0.7157,0.5814,18.915,19.2573,19.6371,89.887,,31.0663,25.3517,0.0320,,,,-99.0,,-99.0,-99.0,26.9597,,26.9322,,0.6386,85.2444,,7.521,,1.5493E+03,,6.5032E-02,,5.7456,5.7446,0.8599,,6.231,29.604,,,,,,,,,,,,
CalCOFI,2007SR,064,66,2007_064u,25-Jul-2020 22:56:29,25-Jul-2020 14:56:29,34.38872,-122.24620,076.7 070.0,076.7,070.0,469.000,472.926,,5.7866,,5.7857,,5.7862,34.2095,,34.2097,34.1689,,34.1705,34.1901,0.4429,,0.4451,0.4554,2.0609,,0.9788,0.7005,0.5780,19.261,19.6185,19.9982,89.624,,30.3833,25.1908,0.0318,,,,-99.0,,-99.0,-99.0,26.9597,,26.9276,,0.6386,85.2441,,7.520,,1.5482E+03,,6.6632E-02,,5.7464,5.7455,0.8599,,6.346,29.517,,,,,,,,,,,,
CalCOFI,2007SR,064,66,2007_064u,25-Jul-2020 22:56:30,25-Jul-2020 14:56:30,34.38872,-122.24620,076.7 070.0,076.7,070.0,468.000,471.917,,5.7888,,5.7877,,5.7883,34.2089,,34.2091,34.1687,,34.1703,34.1897,0.4449,,0.4472,0.4574,2.0598,,0.9762,0.6977,0.5776,19.347,19.7082,20.0880,89.578,,30.2638,25.1759,0.0326,,,,-99.0,,-99.0,-99.0,26.9589,,26.9272,,0.6391,85.2324,,7.521,,1.5494E+03,,6.5964E-02,,5.7486,5.7475,0.8599,,6.374,29.503,,,,,,,,,,,,
CalCOFI,2007SR,064,66,2007_064u,25-Jul-2020 22:56:31,25-Jul-2020 14:56:31,34.38872,-122.24622,076.7 070.0,076.7,070.0,467.000,470.907,,5.7943,,5.7927,,5.7935,34.2072,,34.2074,34.1654,,34.1670,34.1872,0.4490,,0.4515,0.4617,2.0588,,0.9738,0.6952,0.5785,19.525,19.8940,20.2737,89.536,,30.1548,25.2143,0.0327,,,,-99.0,,-99.0,-99.0,26.9569,,26.9240,,0.6418,85.1756,,7.522,,1.5518E+03,,5.9392E-02,,5.7542,5.7526,0.8599,,6.433,29.492,,,,,,,,,,,,
CalCOFI,2007SR,064,66,2007_064u,25-Jul-2020 22:56:32,25-Jul-2020 14:56:32,34.38872,-122.24622,076.7 070.0,076.7,070.0,466.000,469.897,,5.7968,,5.7956,,5.7962,34.2059,,34.2061,34.1643,,34.1659,34.1860,0.4525,,0.4551,0.4654,2.0625,,0.9826,0.7045,0.5850,19.679,20.0548,20.4345,89.696,,30.5703,25.5024,0.0323,,,,-99.0,,-99.0,-99.0,26.9555,,26.9228,,0.6425,85.1615,,7.523,,1.5492E+03,,6.2673E-02,,5.7568,5.7556,0.8599,,6.485,29.546,,,,,,,,,,,,